Simultaneous Nadir Overpasses (SNOs) Predictions

Prediction of SNOs between LANDSAT-8 and NPP Satellite Orbit:

Table of predicted SNOs for the next 14.0 days since TLE Epoch: 5/17/2019
Index Date (LANDSAT-8) Time (LANDSAT-8) Lat,Lon (LANDSAT-8) SZA (LANDSAT-8 ) Date (NPP) Time (NPP) Lat,Lon (NPP) SZA (NPP ) Distance(km) Time Diff (sec)
1 05/17/2019 14:41:31 -70.12, 136.01 129.32 05/17/2019 14:40:45 -70.10, 136.06 129.33 2.69 46
2 05/17/2019 15:30:58 70.01, -56.50 50.57 05/17/2019 15:31:29 69.99, -56.46 50.55 2.54 31
3 05/20/2019 06:08:21 70.80, 85.28 50.78 05/20/2019 06:07:12 70.85, 83.32 50.87 71.62 69
4 05/20/2019 06:58:02 -70.10,-108.13 129.92 05/20/2019 06:57:42 -70.12,-108.20 129.90 3.10 20
5 05/20/2019 07:47:29 69.99, 59.35 49.97 05/20/2019 07:48:25 69.96, 59.36 49.93 3.65 56
6 05/22/2019 22:25:04 70.13,-159.85 49.58 05/22/2019 22:23:55 70.13,-159.77 49.59 3.01 69
7 05/22/2019 23:14:34 -70.03, 7.64 130.53 05/22/2019 23:14:37 -70.03, 7.70 130.52 2.02 3
8 05/23/2019 00:04:05 69.69, 174.82 49.14 05/23/2019 00:05:16 69.66, 175.56 49.09 28.90 71
9 05/25/2019 14:41:35 70.10, -44.01 49.06 05/25/2019 14:40:51 70.11, -43.96 49.07 1.66 44
10 05/25/2019 15:31:05 -70.01, 123.49 131.05 05/25/2019 15:31:33 -70.00, 123.51 131.05 0.93 28
11 05/28/2019 06:08:26 -70.90, -94.58 130.61 05/28/2019 06:07:18 -70.97, -96.89 130.49 84.04 68
12 05/28/2019 06:58:05 70.08, 71.83 48.57 05/28/2019 06:57:46 70.08, 71.84 48.58 0.71 19
13 05/28/2019 07:47:35 -69.98,-120.67 131.53 05/28/2019 07:48:28 -69.98,-120.68 131.54 0.91 53
14 05/30/2019 22:25:09 -70.16, 20.19 131.75 05/30/2019 22:23:58 -70.16, 20.18 131.75 0.90 71
15 05/30/2019 23:14:36 70.04,-172.33 48.13 05/30/2019 23:14:42 70.06,-172.35 48.15 1.58 6
16 05/31/2019 00:04:09 -69.79, -5.06 132.12 05/31/2019 00:05:21 -69.79, -4.64 132.14 16.37 72




NCC Satellite Simultaneous Nadir Overpasses (SNOs) Prediction Service
